Location: Moscow
(55.7500°N, 37.5830°E)
Time: 21:53:23
(UTC+03:00)

Vanguard 2 - Pass Details

Date: 03 December 2021
Orbit: 553 x 2936 km, 32.9° (Epoch: 15 January)

Event Time Altitude Azimuth Distance (km) Brightness Sun altitude
Rises 16:50:35 0° 230° (SW) 3,627 13.2 -6.6°
Reaches altitude 10° 16:55:01 10° 200° (SSW) 3,136 11.5 -7.1°
Maximum altitude 16:57:44 12° 180° (S) 3,263 11.1 -7.5°
Drops below altitude 10° 17:00:52 10° 160° (SSE) 3,744 11.2 -7.8°
Sets 17:07:43 0° 135° (SE) 5,400 11.7 -8.7°
